Showing default

EUTE 5W B, 44624

Orbit data source: Space-Track

EUTE 5W B, 44624 is a payload satellite owned by EutelsatSA (FR) in GEO that was launched on Wed, 09 Oct 2019 UTC via a PROTON-M/BRIZ-M launch vehicle from the Tyuratam Missile And Space Complex (TTMTR). Payload-class satellites include a variety of spacecraft equipped with specific instruments for various scientific and technological missions. These include communications satellites like Starlink; space stations such as the ISS; scientific satellites like the Hubble; Earth observation satellites from companies like Planet Labs, Umbra, and HawkEye 360; GPS; miniature CubeSats for education and research; and military/defense satellites.

Not visible in the next 10 days
Identifier
44624, 2019-067A
Orbit
GEO
Country
Flag of FRFR / EUTE
Related business
Manufacturer
NGIS SSG
Mission
Partially operational Commercial Communications
Bus & Motor
GEOSTAR-2, IHI BT-4?
Mass
2,864 kg wet, ~2,200 kg dry
Launch date (UTC)
2019-10-09 (7 years ago)
Launch vehicle
PROTON-M/BRIZ-M
Launch site
Tyuratam Missile And Space Complex (TTMTR)
Object type
Payload
Rocket body
Debris
Shape & HBR
Box + 2 Pan, Unknown HBR
Radar Cross Section
28.221 m², Large (>1 m²)

Expand to show TLE details & history
Last TLE update: 2 days ago

TLE from 2 days ago
0 EUTE 5W B
1 44624U 19067A   26171.39103049 -.00000047  00000-0  00000+0 0  9990
2 44624   0.0621 352.3440 0003110  96.7408 315.3001  1.00270225 24469
Epoch: 2026-06-20T09:23Z
TLE epoch observation values (Epoch: 2026-06-20T09:23:05.034Z)
Latitude
0.06293°
Longitude
-5.00551°
Altitude
35,777.155 km
Speed
3.075 km/s
True Right ascension
02h 57m 29s
True Declination
0° 03' 46"
Sunlit
Object was in daylight at epoch
Visualization orbit readout
Latitude
Unknown
Longitude
Unknown
Altitude
Unknown
Speed
Unknown
Apparent Right ascension
Unknown
Apparent Declination
Unknown
Sunlit
N/A
Visualization observer readout
Local Sidereal Time
21:39:43
Azimuth
Unknown
Elevation
Unknown
Doppler factor
Unknown
Orbital elements
Apogee altitude
35,801.216 km
Perigee altitude
35,774.989 km
Semi-major axis
42,166.24 km
Eccentricity
0.00031
Inclination
0.0621°
RAAN
352.344°
Arg. of periapsis
96.7408°
True anomaly
315.27503°
Mean anomaly
315.3001°
Eccentric anomaly
315.28756°
Mean motion
0.25067 °/min
Orbital period
1,436.17 mins
BSTAR
0
Loading maneuver chart data...
Computing Atmospheric mass density...
Loading historical data...
Loading historical data...
Loading historical data...
Loading historical data...
Loading historical data...
Loading historical data...
Loading historical data...
Other satellites on launch #67 in the year 2019 (2019-10-09 UTC)

Documentation

Showing up to 5 results
|